OSCAR 29

Last updated on Fri Jun 19 2026 20:04:44 GMT+0000 (Coordinated Universal Time)

1 18362U 87080B 26170.53827119 .00000090 00000+0 13355-3 0 9993 2 18362 90.3731 86.7126 0107427 67.6066 104.3470 13.44480208900469
UTC large
Height (km)
Speed (km/s)
/
Latitude / Longitude
Inclination (degrees)
Orbital Period (minutes)
Azimuth
Elevation
Range (km)
Doppler Factor

Next 0 passes for location: London (51.5072 / 0.1276)

Sorry there are no passes over London.
OSCAR 29